Location: Wangen+im+Allg�u
(47.7098°N, 9.8383°E)
Time: 13:41:46
(UTC+01:00)

ISS - Pass Details

Date: 17 November 2017
Orbit: 402 x 407 km, 51.6° (Epoch: 22 November)

Event Time Altitude Azimuth Distance (km) Brightness Sun altitude
Exits shadow 06:21:01 10° 240° (WSW) 1,444 -1.4 -11.4°
Maximum altitude 06:21:46 11° 227° (SW) 1,407 -1.4 -11.3°
Drops below altitude 10° 06:22:35 10° 212° (SSW) 1,449 -1.2 -11.2°
Sets 06:26:03 0° 172° (S) 2,301 0.3 -10.6°
